Voltar ao catálogo

FENGYUN 1C DEB

AtivoPO
NORAD 36218·DEBRIS·🇨🇳 China

Lançado May 10, 1999 de Taiyuan Satellite Launch Center

Loading…

Próximas Passagens (próximas 24 horas)

TLE

AtualizadoSource: Space-Track

Época: Sep 14, 2026, 02:40 UTC

1 36218U 99025DUT 26257.11166005  .00003331  00000-0  49799-3 0  9998
2 36218  99.0494 134.8954 0069019 159.3314 201.0707 14.73949016631968

Acompanhe FENGYUN 1C DEB em tempo real com AllMySat

Download on the App Store